Regional Weather Roundup
Issued by NWS Wakefield, VA

Home | Current Version | Previous Version | Graphics & Text | Print | Product List | Glossary On
Versions: 1 2 3 4 5 6 7 8 9 10 11 12 13 14 15 16 17 18 19 20 21 22 23 24 25 26 27 28 29 30 31 32 33 34 35 36 37 38 39 40 41 42 43 44 45 46 47 48 49 50
000
ASUS41 KAKQ 300712
RWRAKQ

REGIONAL WEATHER ROUNDUP
NATIONAL WEATHER SERVICE WAKEFIELD VA
300 AM EDT SUN AUG 30 2015

Note: "fair" indicates few or no clouds below 12,000 feet with no
significant weather and/or obstructions to visibility. * = Denotes
station may not report precipitation (e.g., rain,snow,etc.),
thunder or fog.

VAZ042-051-052>054-056-300800-
NORTHERN VIRGINIA

CITY           SKY/WX    TMP DP  RH WIND       PRES   REMARKS
WASH NATIONAL  MOCLDY    71  64  78 S9        30.10F
DULLES         CLEAR     68  64  87 S6        30.10F
FORT BELVOIR   CLEAR     69  63  81 SE2       30.10S
QUANTICO       PTCLDY    72  61  68 W6        30.11F
FREDERICKSBRG* CLEAR     71  64  77 S3        30.10F
STAFFORD*      PTCLDY    66  61  84 CALM      30.15S
WARRENTON      CLEAR     69  65  89 S5        30.10F
CULPEPER*      CLEAR     64  63  96 CALM      30.12S
MANASSAS*      CLEAR     68  66  94 CALM      30.10S
LEESBURG*      CLEAR     70  68  94 S5        30.10F
WINCHESTER     CLEAR     66  63  88 S5        30.10S
FRONT ROYAL*   FAIR      64  63  94 S5        30.09F
LURAY*         FAIR      63  63 100 CALM      30.12S
$$

VAZ048-049-060>072-079>083-300800-
CENTRAL AND SOUTH CENTRAL VIRGINIA

CITY           SKY/WX    TMP DP  RH WIND       PRES   REMARKS
RICHMOND       PTCLDY    68  62  81 SW3       30.12F
CHESTERFIELD*  FAIR      64  54  68 CALM      30.13F
PETERSBURG*    CLEAR     63  63 100 CALM      30.13F
HANOVER        CLEAR     67  62  84 S5        30.13F
TAPPAHANNOCK*  CLEAR     66  61  85 CALM      30.12F
QUINTON*       FAIR      64  62  95 CALM      30.11F
CHARLOTTSVILLE CLEAR     67  64  90 CALM      30.11F
GORDONSVILLE*  FAIR      64  63  98 CALM      30.11S
ORANGE*        CLEAR     66  64  94 CALM      30.13S
LOUISA*        CLEAR     70  64  83 S3        30.11F
BUMPASS*       CLOUDY    68  63  82 MISG      30.12S
FARMVILLE*     CLEAR     67  64  89 CALM      30.11F
CREWE*         FAIR     N/A N/A N/A CALM      30.13F
FORT PICKETT*  FAIR      64  63  96 CALM      30.13F
CHASE CITY*    FAIR      67  67  99 CALM      30.13F
CLARKSVILLE*   FAIR      68  61  77 CALM      30.13F
SOUTH HILL*    PTCLDY    64  62  93 CALM      30.19F
LAWRENCEVILLE* FAIR      63  63 100 CALM      30.13F
EMPORIA*       PTCLDY    59  59 100 CALM      30.14F FOG
$$

VAZ088>098-300800-
SOUTHEAST VIRGINIA

CITY           SKY/WX    TMP DP  RH WIND       PRES   REMARKS
NORFOLK        PTCLDY    68  63  84 CALM      30.11F
VIRGINIA BEACH PTCLDY    71  63  75 CALM      30.10F
NORFOLK NAVAL  MOCLDY    67  62  84 CALM      30.13F
WEST POINT*    CLEAR     64  61  90 CALM      30.13F
SALUDA*        FAIR      63  62  96 CALM      30.11F
NEWPORT NEWS   CLEAR     63  61  93 CALM      30.12F
LANGLEY AFB    CLEAR     66  64  92 W2        30.11S
FORT EUSTIS    CLEAR     66  66 100 CALM      30.10F
WILLIAMSBURG*  CLEAR     68  66  94 CALM      30.13S
HR EXEC AP*      N/A     57  55  94 CALM      30.14F
FRANKLIN*      CLEAR     62  61  96 CALM      30.12F
WAKEFIELD      CLEAR     61  59  93 CALM      30.12F
$$

VAZ020-022-025-037-045-300800-
WEST CENTRAL AND SOUTHWEST VIRGINIA

CITY           SKY/WX    TMP DP  RH WIND       PRES   REMARKS
STAUNTON*      CLEAR     65  61  85 CALM      30.16S
WAYNESBORO*    FAIR      68  60  75 CALM      30.15S
HOT SPRINGS VA CLEAR     64  57  77 W8        30.24S
LYNCHBURG      PTCLDY    64  60  87 CALM      30.15F
DANVILLE       MOCLDY    67  63  87 SW3       30.14F
SOUTH BOSTON*  FAIR      65  62  93 CALM      30.13S
MARTINSVILLE   CLOUDY    64  64 100 CALM      30.17F
ROANOKE        CLOUDY    67  61  81 CALM      30.17S
BLACKSBURG     MOCLDY    63  62  97 CALM      30.22F
DUBLIN*        MOCLDY    63  63 100 CALM      30.21S
MARION*        CLOUDY    64  61  91 CALM      30.24S
HILLSVILLE*    CLOUDY    64  59  82 S6        30.22S
RICHLANDS*     FAIR      65  32  29 SE3       30.21S
WISE*          CLEAR     66  55  68 S3        30.22S
ABINGDON*      CLOUDY    68  61  79 CALM      30.19S
$$

MDZ021>025-VAZ099-100-300800-
SOUTHERN MARYLAND AND THE DELMARVA PENINSULA

CITY           SKY/WX    TMP DP  RH WIND       PRES   REMARKS
PATUXENT RIVER CLEAR     67  62  84 CALM      30.10F
BAY BRIDGE APT   N/A     72  64  78 S3        30.10S
LEONARDTOWN    CLEAR     68  63  83 CALM      30.13S
DOVER          CLEAR     68  65  88 S6        30.09S
GEORGETOWN     PTCLDY    65  61  87 CALM      30.12S
EASTON         NOT AVBL
CAMBRIDGE      CLEAR     66  63  88 CALM      30.10F
SALISBURY      PTCLDY    63  61  93 CALM      30.10F
OCEAN CITY     PTCLDY    65  62  90 CALM      30.11F
WALLOPS ISLAND CLEAR     65  64  97 CALM      30.11F
ACCOMACK*      CLEAR     59  41  51 CALM      30.11F
$$

NCZ012>017-030>032-300800-
NORTH CENTRAL AND EASTERN NORTH CAROLINA

CITY           SKY/WX    TMP DP  RH WIND       PRES   REMARKS
ROANOKE RAPIDS FAIR      63  61  94 CALM      30.13S
RALEIGH        MOCLDY    67  61  81 CALM      30.14F
ELIZABETH CITY MOCLDY    69  66  90 NW6       30.11S
AHOSKIE*       PTCLDY    63  61  94 CALM      30.13F
EDENTON*       MOCLDY    66  63  90 N3        30.12S
CURRITUCK*     MOCLDY    68  65  88 CALM      30.11S
KILL DEVIL HLS MOCLDY    76  70  81 NE6       30.08F
MANTEO         MOCLDY    74  71  88 NE5       30.09F
CAPE HATTERAS  PTCLDY    76  73  91 N5        30.08F
TARBORO*       FAIR      65  64  94 CALM      30.13F
GOLDSBORO      CLOUDY    69  64  86 CALM      30.11F
WASHINGTON     PTCLDY    65  64  95 CALM      30.11F
GREENVILLE     MOCLDY    68  68 100 CALM      30.13F
NEW BERN       PTCLDY    68  66  93 CALM      30.12F
WILMINGTON     MOCLDY    71  65  81 CALM      30.11F
$$

VAZ048-300800-
ELSEWHERE

CITY           SKY/WX    TMP DP  RH WIND       PRES   REMARKS
HARRISBURG PA  PTCLDY    69  64  84 SE3       30.08F
BALTIMORE      PTCLDY    68  63  84 S3        30.10S
ANNAPOLIS      CLEAR     71  63  75 VRB5      30.09F
ANDREWS AFB    CLEAR     69  64  84 S7        30.10S
PHILADELPHIA   MOCLDY    72  62  71 SW7       30.11F
HENDERSON NC   PTCLDY    68  59  71 SE3       30.14F
GREENSBORO     CLOUDY    71  62  73 CALM      30.14F
ROCKY MOUNT    MOCLDY    68  63  84 CALM      30.12F
$$

VAZ100-300800-
MARINE

STATION/POSITION TIME  TEMP    WIND        PRES    WAVE   SWELL
                       AIR SEA DIR/SP/G            HT/PER HT/PER
                 (UTC) (F)     (DEG/KT/KT) (MB)    (FT/S) (FT/S)
15NM E FENWICK I 0650   76 78  170/  8/ 10 1019.7F   3/10   3/10
THOMAS POINT MD  0700   74 78  200/ 15/ 17 1019.6F
GOOSES REEF MD   0700   75 79  210/ 12/ 14 1020.1F
POTOMAC MD       0700   74 79  230/ 10/ 12 1018.5F   1/ 2
STINGRAY PT      0700   76 79  220/  6/  8 1019.9F   0
JAMESTOWN VA     0700   70 81  230/  6/  6   N/A
CHESAPEAKE LGHT  0600   77      70/  5/  6 1020.4F
CAPE HENRY BUOY  0628      78                N/A     3/11   2/11
1ST LANDING BUOY 0700      78              1019.4F   2/ 6
CAPE CHARLES BUO 0626      78                N/A     3/11   3/11
OFFSHORE WE BUOY 0611      78                N/A     3/11   3/11
64NM E OF VA BCH 0650   77 78   60/ 10/ 14 1018.3F   4/11   3/11
44100 DUCK FRF   0624      78                N/A     4/11   2/11
44056 DUCK FRF   0611      78                N/A     4/12   2/12
DIAMOND SHLS NC  0650   79 81  350/ 10/ 14 1018.2F   4/10   3/10
CAPE LOOKOUT NC  0700   74     350/  6/  7 1018.7F
$$



USA.gov is the U.S. government's official web portal to all federal, state and local government web resources and services.